Weather Roundup
Issued by NWS Corpus Christi, TX

Home | Current Version | Previous Version | Text Only | Print | Product List | Glossary On
Versions: 1 2 3 4 5 6 7 8 9 10 11 12 13 14 15 16 17 18 19 20 21 22 23 24 25 26 27 28 29 30 31 32 33 34 35 36 37 38 39 40 41 42 43 44 45 46 47 48 49 50
578
ASUS44 KCRP 221710
HRRCRP

SOUTH TEXAS REGIONAL WEATHER ROUNDUP
NATIONAL WEATHER SERVICE CORPUS CHRISTI TX
1200 PM CDT FRI MAY 22 2015


TXZ229>244-221800-
...CORPUS CHRISTI AREA OBSERVATIONS...

CITY           SKY/WX    TMP DP  RH WIND       PRES   REMARKS
CORPUS CHRISTI PTSUNNY   84  74  71 SE13      30.04R HX  91
NAS CORPUS CHR PTSUNNY   83  77  82 SE13      30.06R HX  92
ROCKPORT       NOT AVBL
KINGSVILLE NAS PTSUNNY   85  78  80 SE10      30.03S HX  96
ALICE          MOSUNNY   88  73  61 SE13      30.02F HX  95
FALFURRIAS     PTSUNNY   87  74  66 SE8       30.02S HX  95
$$

...VICTORIA AREA OBSERVATIONS...

CITY           SKY/WX    TMP DP  RH WIND       PRES   REMARKS
VICTORIA       PTSUNNY   81  75  82 E16       30.07F
BEEVILLE       CLOUDY    82  77  85 E9        30.06R
PLEASANTON     PTSUNNY   78  71  78 E9        30.07F
SAN ANTONIO    CLOUDY    73  69  87 E10       30.09R FOG
$$

...LAREDO AREA OBSERVATIONS...

CITY           SKY/WX    TMP DP  RH WIND       PRES   REMARKS
LAREDO         PTSUNNY   84  71  65 SE10      30.05S
COTULLA        CLOUDY    77  71  82 SE13      30.05S
DEL RIO        CLOUDY    72  68  87 SE13      30.05R
MCALLEN        MOSUNNY   89  73  59 VRB6      30.03R HX  97
HEBBRONVILLE     N/A     82  71  67 S9        30.06R
$$

...OTHER TEXAS OBSERVATIONS...

CITY           SKY/WX    TMP DP  RH WIND       PRES   REMARKS
BROWNSVILLE    MOSUNNY   87  76  69 SE14G22   30.02R HX  97
HOUSTON        CLOUDY    70  63  78 E9        30.15S
COL. STATION   CLOUDY    69  64  84 E9        30.15R
AUSTIN         CLOUDY    71  69  93 E9        30.10S
WACO           CLOUDY    68  63  84 E12       30.14S
FORT WORTH     CLOUDY    61  53  75 E8        30.15S
WICHITA FALLS  RAIN      59  57  93 E13       30.13S FOG
LUBBOCK        CLOUDY    57  54  89 E8        30.14S
EL PASO        SUNNY     69  52  54 E6        30.05F
$$

...MARINE OBSERVATIONS...

STATION/POSITION TIME  SKY/WX   TEMP    WIND        PRES    VSBY  WAVE   SWELL
                                AIR SEA DIR/SP/G                  HT/PER HT/PER
                 (UTC)          (F)     (DEG/KT/KT) (MB)    (MI)  (FT/S) (FT/S)
PORT ARANSAS     1700            81 81  100/ 12/ 13 1018.3R
BUOY 90 E PORT A 1650            81 80  110/ 12/ 16 1018.8R         4/ 5
BUOY 45 SE BAFFI 1650            81 80  130/ 12/ 14 1016.8S         3/ 6   2/ 6
BUOY 200 E PT IS 1650            81 81  130/ 12/ 14 1018.4R         2/ 5   2/ 6
BUOY 15 E GALVES 1650            74 80   70/ 14/ 17 1019.7R         3/ 5
$$



USA.gov is the U.S. government's official web portal to all federal, state and local government web resources and services.